Regional Weather Roundup
Issued by NWS Albany, NY

Home | Current Version | Previous Version | Text Only | Print | Product List | Glossary On
Versions: 1 2 3 4 5 6 7 8 9 10 11 12 13 14 15 16 17 18 19 20 21 22 23 24 25 26 27 28 29 30 31 32 33 34 35 36 37 38 39 40 41 42 43 44 45 46 47 48 49 50
631
ASUS41 KALY 231810
RWRALY

NEW YORK STATE HOURLY WEATHER ROUNDUP
NATIONAL WEATHER SERVICE ALBANY NY
200 PM EDT THU MAR 23 2017

NOTE: "FAIR" INDICATES FEW OR NO CLOUDS BELOW 12,000 FEET WITH NO
SIGNIFICANT WEATHER AND/OR NO OBSTRUCTIONS TO VISIBILITY.

NYZ032-033-038>043-046>054-057>066-NYZ062>081-082-084-231900-
EAST


CITY           SKY/WX    TMP DP  RH WIND       PRES   REMARKS
ALBANY         MOSUNNY   34   3  27 NW14G21   30.52F WCI  25
GLENS FALLS    SUNNY     34   2  25 SW5       30.48F WCI  30
POUGHKEEPSIE   SUNNY     34   0  23 CALM      30.52F
NEWBURGH       SUNNY     34   3  27 W12       30.52F WCI  25
MONTGOMERY     SUNNY     37  -2  19 NW12G18   30.50F WCI  29
WHITE PLAINS   SUNNY     34  -2  21 NW12      30.53F WCI  25
ISLIP          SUNNY     37   0  21 NW16G23   30.53F WCI  28
NEW YORK CITY  SUNNY     38   1  21 N8        30.56F WCI  32
CENTRAL PARK   SUNNY     38   0  20 VRB5      30.57F WCI  34
$$

NYZ005>009-017-018-044>046-055-056-231900-
CENTRAL


CITY           SKY/WX    TMP DP  RH WIND       PRES   REMARKS
FULTON         SUNNY     32   6  33 W6        30.56F WCI  26
SYRACUSE       MOSUNNY   30   6  36 CALM      30.57F
ROME           MIX PCPN  29   8  41 SW9       30.56F WCI  20
ELMIRA         SUNNY     35   7  31 MISG      30.52F
BINGHAMTON     SUNNY     28   3  34 W12       30.48F WCI  18
MONTICELLO     SUNNY     30   0  27 W14       30.49F WCI  20
$$

NYZ026>034-041>043-087-231900-
NORTH


CITY           SKY/WX    TMP DP  RH WIND       PRES   REMARKS
WATERTOWN      SUNNY     30  14  51 W16G23    30.56F WCI  19
FORT DRUM      NOT AVBL
MASSENA        NOT AVBL
SARANAC LAKE   SUNNY     27  -4  26 NW8       30.39F WCI  19
PLATTSBURGH    SUNNY     32  -1  24 NW14G23   30.49S WCI  22
$$

NYZ001>004-010>016-019>021-085-231900-
WEST


CITY           SKY/WX    TMP DP  RH WIND       PRES   REMARKS
NIAGARA FALLS  SUNNY     34  15  46 SW3       30.54F
BUFFALO        MOSUNNY   34  11  38 W3        30.54F
DUNKIRK        SUNNY     31  20  63 N8        30.54F WCI  23
JAMESTOWN      SUNNY     34   3  27 SW6       30.47F WCI  29
WELLSVILLE     SUNNY     36  -1  21 W8        30.46F WCI  30
ROCHESTER      MOSUNNY   32   9  38 S6        30.56F WCI  26
PENN YAN       SUNNY     32   6  33 CALM      30.54F
$$

             KEY
       WCI = WIND CHILL INDEX
       VSB = VISIBILITY
       HX  = HEAT INDEX
$$




USA.gov is the U.S. government's official web portal to all federal, state and local government web resources and services.